Zurück zum Katalog

QIANFAN-137

AktivKommunikationPO
NORAD 69083·PAYLOAD·🇨🇳 China

Gestartet May 12, 2026 von Taiyuan Satellite Launch Center

Loading…

Nächste Überflüge (nächste 24 Stunden)

TLE

AktuellSource: Space-Track

Epoche: Sep 14, 2026, 13:23 UTC

1 69083U 26104L   26257.55791922  .00000109  00000-0  15079-3 0  9996
2 69083  88.9921 332.2479 0002282 101.9524 258.1883 13.51021456 17282

Verfolge QIANFAN-137 in Echtzeit mit AllMySat

Download on the App Store